Cairns, Australia

10:05 PM AEST on March 25, 2017 (GMT +1000)
Cairns International

Weather History for YBCS - March, 2014

Change the Weather History Date:

Saturday, March 22, 2014

  Actual Average Record
Temperature  
Mean Temperature 79 °F -  
Max Temperature 84 °F 85 °F 93 °F (2012)
Min Temperature 74 °F 72 °F 69 °F (2003)
Cooling Degree Days 14    
Growing Degree Days 29 (Base 50)    
Moisture  
Dew Point 74 °F    
Average Humidity 89    
Maximum Humidity 100    
Minimum Humidity 79    
Precipitation  
Precipitation 1.57 in 0.37 in - ()
Sea Level Pressure  
Sea Level Pressure 29.83 in    
Wind  
Wind Speed 10 mph ()    
Max Wind Speed 16 mph    
Max Gust Speed 24 mph    
Visibility 5.3 miles    
Events Rain    
Averages and records for this station are not official NWS values.
T = Trace of Precipitation, MM = Missing Value Source: Averaged Metar Reports

Daily Weather History Graph

Daily Weather History Graph

Search for Another Location

Airport or City:

Trip Planner

Search our weather history database for the weather conditions in past years. The results will help you decide how hot, cold, wet, or windy it might be!

Date:

Astronomy

Mar. 22, 2014 Rise Set
Actual Time 6:21 AM AEST 6:26 PM AEST
Civil Twilight 5:59 AM AEST 6:48 PM AEST
Nautical Twilight 5:34 AM AEST 7:13 PM AEST
Astronomical Twilight 5:09 AM AEST 7:38 PM AEST
Moon 10:37 PM AEST (3/22) 10:56 AM AEST (3/22)
Length of Visible Light 12h 48m
Length of Day
12h 05m
Waning Gibbous, 71% of the Moon is Illuminated
Mar 22
Waning Gibbous
Mar 24
Last Quarter
Mar 31
New
Apr 7
First Quarter
Apr 15
Full

Hourly Weather History & Observations

Time (AEST) Temp. Heat Index Dew Point Humidity Pressure Visibility Wind Dir Wind Speed Gust Speed Precip Events Conditions
12:00 AM 76 °F - 72 °F 83% 29.84 in - South 11.5 mph - -  
12:00 AM 75.2 °F - 71.6 °F 89% 29.83 in 6.2 mi South 11.5 mph - N/A   Scattered Clouds
12:30 AM 75.2 °F - 71.6 °F 89% 29.83 in 6.2 mi SSE 10.4 mph - N/A   Scattered Clouds
1:00 AM 76 °F - 72 °F 82% 29.83 in - SSE 9.2 mph - -  
1:00 AM 75.2 °F - 71.6 °F 89% 29.80 in 6.2 mi SSE 9.2 mph - N/A   Mostly Cloudy
1:30 AM 75.2 °F - 71.6 °F 89% 29.80 in 6.2 mi SSE 10.4 mph - N/A   Mostly Cloudy
2:00 AM 75.2 °F - 71.6 °F 89% 29.80 in 6.2 mi SE 10.4 mph - N/A   Partly Cloudy
2:30 AM 77.0 °F - 71.6 °F 83% 29.80 in 6.2 mi SSE 11.5 mph - N/A   Partly Cloudy
3:00 AM 75 °F - 72 °F 86% 29.80 in - SSE 9.2 mph - -  
3:00 AM 75.2 °F - 71.6 °F 89% 29.80 in 6.2 mi SSE 9.2 mph - N/A   Scattered Clouds
3:30 AM 75.2 °F - 71.6 °F 89% 29.77 in 6.2 mi SE 10.4 mph - N/A   Scattered Clouds
4:00 AM 75 °F - 72 °F 87% 29.80 in - SSE 10.4 mph - -  
4:00 AM 75.2 °F - 71.6 °F 89% 29.77 in 6.2 mi SSE 10.4 mph - N/A   Scattered Clouds
4:30 AM 75.2 °F - 71.6 °F 89% 29.77 in - SSE 10.4 mph - N/A   Overcast
5:00 AM 77.0 °F - 71.6 °F 83% 29.80 in 6.2 mi South 9.2 mph - N/A   Scattered Clouds
5:30 AM 75.2 °F - 73.4 °F 94% 29.80 in 3.7 mi South 11.5 mph - N/A Rain Light Rain Showers
5:45 AM 75.2 °F - 73.4 °F 94% 29.80 in 6.2 mi South 10.4 mph - N/A   Mostly Cloudy
6:00 AM 76 °F - 73 °F 86% 29.81 in - South 9.2 mph - -   Overcast
6:00 AM 77.0 °F - 73.4 °F 89% 29.80 in 6.2 mi South 9.2 mph - N/A   Mostly Cloudy
6:30 AM 77.0 °F - 73.4 °F 89% 29.80 in 6.2 mi South 10.4 mph - N/A   Mostly Cloudy
6:52 AM 77.0 °F - 73.4 °F 89% 29.83 in 3.7 mi South 10.4 mph - N/A Rain Rain Showers
6:58 AM 75.2 °F - 73.4 °F 94% 29.83 in 3.1 mi SSE 8.1 mph - N/A Rain Rain Showers
7:12 AM 77.0 °F - 73.4 °F 89% 29.83 in 6.2 mi South 8.1 mph - N/A   Mostly Cloudy
7:30 AM 77.0 °F - 73.4 °F 89% 29.83 in 6.2 mi South 10.4 mph - N/A Rain Light Rain Showers
7:38 AM 75.2 °F - 73.4 °F 94% 29.83 in 3.1 mi South 11.5 mph - N/A Rain Rain Showers
8:00 AM 75.2 °F - 73.4 °F 94% 29.86 in 2.5 mi SE 8.1 mph - N/A Rain Rain Showers
8:14 AM 77.0 °F - 75.2 °F 94% 29.86 in 6.2 mi South 11.5 mph - N/A Rain Light Rain Showers
8:30 AM 77.0 °F - 73.4 °F 89% 29.86 in 6.2 mi South 10.4 mph - N/A Rain Light Rain Showers
9:00 AM 78 °F - 76 °F 90% 29.88 in 4 mi South 10.4 mph - - Rain Light Rain Showers
9:00 AM 78.8 °F - 75.2 °F 89% 29.86 in 6.2 mi South 10.4 mph - N/A Rain Light Rain Showers
9:30 AM 78.8 °F - 75.2 °F 89% 29.86 in 5.6 mi South 8.1 mph - N/A Rain Light Rain Showers
10:00 AM 79 °F - 76 °F 87% 29.88 in - South 8.1 mph - -  
10:00 AM 78.8 °F - 75.2 °F 89% 29.86 in 6.2 mi South 8.1 mph - N/A   Scattered Clouds
10:30 AM 80.6 °F 87.1 °F 77.0 °F 89% 29.86 in 6.2 mi South 9.2 mph - N/A   Scattered Clouds
10:56 AM 84.2 °F 94.1 °F 77.0 °F 79% 29.86 in 6.2 mi South 10.4 mph - N/A Rain Light Rain Showers
11:00 AM 82.4 °F 90.9 °F 77.0 °F 84% 29.86 in 6.2 mi SSE 9.2 mph - N/A Rain Light Rain Showers
11:14 AM 80.6 °F 87.1 °F 77.0 °F 89% 29.86 in 6.2 mi SE 15.0 mph - N/A Rain Light Rain Showers
11:30 AM 82.4 °F 92.4 °F 78.8 °F 89% 29.86 in 6.2 mi SSE 11.5 mph - N/A   Mostly Cloudy
12:00 PM 82 °F - 77 °F 80% 29.85 in - SSE 11.5 mph - -   Overcast
12:00 PM 82.4 °F 90.9 °F 77.0 °F 84% 29.83 in 6.2 mi SSE 11.5 mph - N/A   Mostly Cloudy
12:30 PM 82.4 °F 89.5 °F 75.2 °F 79% 29.83 in 6.2 mi SE 11.5 mph - N/A Rain Light Rain Showers
12:48 PM 78.8 °F - 75.2 °F 89% 29.83 in 3.1 mi ESE 16.1 mph - N/A Rain Light Rain Showers
1:00 PM 79 °F - 77 °F 90% 29.84 in - SSE 10.4 mph - -  
1:00 PM 78.8 °F - 77.0 °F 94% 29.83 in 6.2 mi SSE 10.4 mph - N/A   Mostly Cloudy
1:30 PM 78.8 °F - 75.2 °F 89% 29.83 in 6.2 mi South 9.2 mph - N/A   Mostly Cloudy
2:00 PM 80.6 °F 86.2 °F 75.2 °F 84% 29.80 in 6.2 mi South 8.1 mph - N/A   Mostly Cloudy
2:30 PM 82.4 °F 89.5 °F 75.2 °F 79% 29.80 in 6.2 mi South 8.1 mph - N/A Rain Light Rain Showers
2:48 PM 78.8 °F - 77.0 °F 94% 29.80 in 2.5 mi South 9.2 mph - N/A Rain Rain Showers
3:00 PM 77 °F - 76 °F 96% 29.81 in 4 mi SE 12.7 mph - - Rain Heavy Rain Showers
3:00 PM 77.0 °F - 77.0 °F 100% 29.80 in 6.2 mi SE 12.7 mph - N/A Rain Rain Showers
3:34 PM 77.0 °F - 75.2 °F 94% 29.80 in 5.0 mi South 9.2 mph - N/A Rain Light Rain Showers
4:00 PM 76 °F - 75 °F 95% 29.81 in - South 11.5 mph - -  
4:00 PM 77.0 °F - 75.2 °F 94% 29.80 in 5.0 mi South 11.5 mph - N/A Rain Light Rain Showers
4:30 PM 78.8 °F - 73.4 °F 83% 29.80 in 5.6 mi SSW 10.4 mph - N/A Rain Light Rain Showers
4:40 PM 77.0 °F - 75.2 °F 94% 29.80 in 2.5 mi SSE 13.8 mph - N/A Rain Rain Showers
4:55 PM 77.0 °F - 75.2 °F 94% 29.80 in 5.0 mi SSE 12.7 mph 24.2 mph N/A Rain Light Rain Showers
5:00 PM 77.0 °F - 75.2 °F 94% 29.80 in 5.6 mi SSE 10.4 mph - N/A Rain Light Rain Showers
5:30 PM 77.0 °F - 75.2 °F 94% 29.83 in 6.2 mi South 10.4 mph - N/A Rain Light Rain Showers
5:43 PM 77.0 °F - 75.2 °F 94% 29.83 in 2.5 mi South 11.5 mph - N/A Rain Rain Showers
6:00 PM 76 °F - 74 °F 92% 29.84 in 3 mi South 12.7 mph - -   Overcast
6:00 PM 75.2 °F - 73.4 °F 94% 29.83 in 3.1 mi South 12.7 mph - N/A Rain Light Rain Showers
6:13 PM 75.2 °F - 73.4 °F 94% 29.83 in 4.3 mi South 13.8 mph - N/A Rain Light Rain Showers
6:30 PM 75.2 °F - 73.4 °F 94% 29.83 in 4.3 mi South 13.8 mph - N/A Rain Light Rain Showers
7:00 PM 76 °F - 73 °F 88% 29.86 in - South 10.4 mph - -  
7:00 PM 77.0 °F - 73.4 °F 89% 29.83 in 6.2 mi South 10.4 mph - N/A   Mostly Cloudy
7:36 PM 75.2 °F - 73.4 °F 94% 29.86 in 3.7 mi South 16.1 mph - N/A Rain Rain Showers
8:00 PM 75.2 °F - 73.4 °F 94% 29.86 in 3.1 mi South 13.8 mph - N/A Rain Light Rain Showers
8:28 PM 75.2 °F - 73.4 °F 94% 29.89 in 5.0 mi SSW 4.6 mph - N/A   Mostly Cloudy
9:00 PM 76 °F - 73 °F 87% 29.89 in - South 13.8 mph - -   Overcast
9:00 PM 77.0 °F - 73.4 °F 89% 29.89 in 6.2 mi South 13.8 mph - N/A   Mostly Cloudy
9:30 PM 77.0 °F - 73.4 °F 89% 29.89 in 6.2 mi South 13.8 mph - N/A   Mostly Cloudy
10:00 PM 77 °F - 72 °F 82% 29.91 in - South 15.0 mph - -  
10:00 PM 77.0 °F - 73.4 °F 89% 29.89 in 6.2 mi South 15.0 mph - N/A   Mostly Cloudy
10:30 PM 77.0 °F - 71.6 °F 83% 29.89 in 6.2 mi South 13.8 mph - N/A   Mostly Cloudy
11:00 PM 77.0 °F - 71.6 °F 83% 29.89 in 5.6 mi South 12.7 mph - N/A Rain Light Rain Showers
11:30 PM 75.2 °F - 73.4 °F 94% 29.89 in 5.0 mi South 12.7 mph - N/A   Mostly Cloudy